Regional Weather Roundup
Issued by NWS

Home | Current Version | Previous Version | Graphics & Text | Print | Product List | Glossary On
Versions: 1 2 3 4 5 6 7 8 9 10 11 12 13 14 15 16 17 18 19 20 21 22 23 24 25 26 27 28 29 30 31 32 33 34 35 36 37 38 39 40 41 42 43 44 45 46 47 48 49 50
417
ASUS44 KJAN 180603
RWRMS

MISSISSIPPI HOURLY WEATHER ROUNDUP
NATIONAL WEATHER SERVICE JACKSON MS
100 AM CDT FRI APR 18 2014

NOTE: "FAIR: INDICATES FEW OR NO CLOUDS BELOW 12,000 FEET WITH NO
SIGNIFICANT WEATHER AND/OR OBSTRUCTIONS TO VISIBILITY.

MSZ001>002-007>008-010>013-018>021-025>028-034>036-180700-
NORTHWEST MISSISSIPPI

CITY           SKY/WX    TMP DP  RH WIND       PRES   REMARKS
CLARKSDALE       N/A     57  50  77 E3        30.23R
CLEVELAND      DRIZZLE   58  53  83 SE6       30.22R
GREENWOOD      CLOUDY    59  50  72 SE5       30.22S
6HR MIN TEMP:  55; 6HR MAX TEMP:  65;

GREENVILLE     MOCLDY    59  54  83 SE5       30.21R
6HR MIN TEMP:  56; 6HR MAX TEMP:  66; 6HR PCP: TRACE;

GRENADA        FAIR      55  52  88 CALM      30.23S
OLIVE BRANCH   CLOUDY    54  46  76 CALM      30.23R
OXFORD         CLOUDY    54  48  82 CALM      30.24S
TUNICA         FAIR      55  50  82 CALM      30.23R
$$

MSZ003>006-009-014>017-022>024-029>033-037>039-180700-
NORTHEAST MISSISSIPPI

CITY           SKY/WX    TMP DP  RH WIND       PRES   REMARKS
BELMONT        CLOUDY    59  48  66 SE5       30.25S
COLUMBUS AFB   CLOUDY    60  52  75 SE6       30.24F
6HR MIN TEMP:  57; 6HR MAX TEMP:  65; 6HR PCP: TRACE;

CORINTH        CLOUDY    57  48  72 CALM      30.24R
GOLDN TRIANGLE CLOUDY    59  50  72 E6        30.25F
STARKVILLE     MOCLDY    55  54  94 E3        30.23S
TUPELO         CLOUDY    60  51  72 SE6       30.23S
6HR MIN TEMP:  57; 6HR MAX TEMP:  66;

$$

MSZ040-058-180700-
CENTRAL MISSISSIPPI

CITY           SKY/WX    TMP DP  RH WIND       PRES   REMARKS
JACKSON INTL   CLOUDY    60  53  77 NE5       30.18S
6HR MIN TEMP:  58; 6HR MAX TEMP:  63;

JACKSON HAWKNS CLOUDY    62  51  67 E6        30.19S
6HR MIN TEMP:  61; 6HR MAX TEMP:  64;

MERIDIAN KEY   FAIR      60  52  74 E5        30.20F
6HR MIN TEMP:  57; 6HR MAX TEMP:  62;

MERIDIAN NAS   FAIR      58  52  80 E6        30.21F
6HR MIN TEMP:  57; 6HR MAX TEMP:  62;

RAYMOND        CLOUDY    59  54  82 CALM      30.19S
VICKSBURG      MOCLDY    60  54  80 CALM      30.19S
6HR MIN TEMP:  59; 6HR MAX TEMP:  66;

$$

MSZ059>079-180700-
SOUTH MISSISSIPPI

CITY           SKY/WX    TMP DP  RH WIND       PRES   REMARKS
BROOKHAVEN     MOCLDY    57  54  88 CALM      30.17F
COLUMBIA       CLOUDY    57  55  94 MISG      30.14S
HATTIESBURG    LGT RAIN  60  56  86 E6        30.16F
6HR MIN TEMP:  60; 6HR MAX TEMP:  63; 6HR PCP: TRACE;

MCCOMB         FAIR      59  54  83 VRB5      30.14F
6HR MIN TEMP:  59; 6HR MAX TEMP:  63;

NATCHEZ        FAIR      57  52  82 N5        30.17S
6HR MIN TEMP:  57; 6HR MAX TEMP:  64;

PINE BELT      CLOUDY    59  52  77 E7        30.17F
6HR MIN TEMP:  59; 6HR MAX TEMP:  63;

$$

MSZ080>082-180700-
COASTAL MISSISSIPPI

CITY           SKY/WX    TMP DP  RH WIND       PRES   REMARKS
BILOXI         LGT RAIN  61  60  98 NE7       30.14F FOG
6HR MIN TEMP:  61; 6HR MAX TEMP:  65; 6HR PCP:  0.05;

PASCAGOULA     RAIN      61  59  93 NE6       30.14R FOG
6HR MIN TEMP:  61; 6HR MAX TEMP:  65; 6HR PCP:  0.42;

GULFPORT       RAIN      63  59  87 NE9       30.13F FOG
6HR MIN TEMP:  63; 6HR MAX TEMP:  68; 6HR PCP:  0.06;

$$



USA.gov is the U.S. government's official web portal to all federal, state and local government web resources and services.